Flag for U.S.A. Weather past 2 weeks in Memphis, Tennessee, U.S.A.

Now
73 °F

Overcast.


Feels Like: 71 °F
Forecast: 70 / 78 °F
Wind: 3 mph from Southwest

Location: Memphis International Airport

Current Time: Jul 4, 2015 at 3:44:42 AM

Latest Report: Jul 4, 2015 at 2:54 AM


Visibility: 7 mi

Pressure: 29.88 "Hg

Humidity: 90%

Dew point: 70 °F

Location of MemphisLocation

Historic Weather in Memphis — Graph

°F

Memphis temperature yesterday

Maximum temperature yesterday: 77 °F (at 4:54 PM)
Minimum temperature yesterday: 72 °F (at 6:54 AM)
Average temperature yesterday: 74 °F

Past Weeks' High & Low Weather Summary

 TemperatureHumidityPressure
High97 °F (Jun 24, 1:54 PM)94% (Jul 3, 5:58 AM)30.13 "Hg (Jul 3, 5:58 AM)
Low67 °F (Jun 28, 4:54 AM)42% (Jun 28, 2:54 PM)29.83 "Hg (Jul 2, 6:54 PM)
Average81 °F72%29.97 "Hg
* Reported Jun 19 2:54 AM — Jul 4 2:02 AM, Memphis, Weather by CustomWeather, © 2015

Note: Actual official high and low records may vary slightly from our data, if they occured in-between our weather recording intervals... More about our weather records

Advertising

Memphis weather history for previous 24 hours

 ConditionsComfort  
Time TempWeatherWind HumidityBarometerVisibility
2:02 AM
Sat, Jul 4
73 °FOvercast.5 mph89%29.91 "Hg7 mi
1:54 AM73 °FLow clouds.6 mph90%29.90 "Hg7 mi
12:54 AM73 °FOvercast.5 mph90%29.91 "Hg8 mi
11:54 PM
Fri, Jul 3
73 °FOvercast.3 mph90%29.92 "Hg10 mi
10:54 PM73 °FPassing clouds.7 mph90%29.94 "Hg10 mi
9:54 PM73 °FPassing clouds.10 mph88%29.91 "Hg10 mi
8:54 PM75 °FMostly cloudy.7 mph85%29.88 "Hg10 mi
7:54 PM75 °FBroken clouds.13 mph85%29.86 "Hg10 mi
6:54 PM77 °FCloudy.12 mph88%29.87 "Hg10 mi
5:54 PM76 °FMostly cloudy.8 mph85%29.90 "Hg10 mi
4:54 PM77 °FBroken clouds.8 mph85%29.90 "Hg10 mi
3:54 PM76 °FOvercast.8 mph88%29.90 "Hg10 mi
2:54 PM75 °FLight rain. Cloudy.10 mph90%29.93 "Hg10 mi
1:54 PM74 °FLight rain. Fog.8 mph94%29.96 "Hg6 mi
12:54 PM74 °FRain. Cloudy.9 mph91%29.97 "Hg1 mi
11:54 AM74 °FLight rain. Fog.6 mph91%29.97 "Hg1 mi
11:04 AM73 °FHeavy rain. Fog.3 mph89%29.94 "Hg1 mi
10:54 AM74 °FLight rain. Fog.No wind91%29.92 "Hg5 mi
9:54 AM74 °FLight rain. Overcast.6 mph94%29.95 "Hg10 mi
8:54 AM72 °FThunderstorms. Fog.No wind93%29.96 "Hg3 mi
7:54 AM72 °FStrong thunderstorms. Fog.9 mph93%29.92 "Hg1 mi
6:54 AM72 °FThunderstorms. Fog.7 mph93%29.89 "Hg2 mi
5:58 AM75 °FThunderstorms. Fog.8 mph94%29.89 "Hg5 mi
4:54 AM75 °FPassing clouds.5 mph85%29.88 "Hg10 mi
3:54 AM74 °FPassing clouds.5 mph85%29.86 "Hg10 mi
Weather by CustomWeather, © 2015

See weather overviewHow to use our weather pages